Regional Weather Roundup
Issued by NWS

Home | Current Version | Previous Version | Graphics & Text | Print | Product List | Glossary Off
Versions: 1 2 3 4 5 6 7 8 9 10 11 12 13 14 15 16 17 18 19 20 21 22 23 24 25 26 27 28 29 30 31 32 33 34 35 36 37 38 39 40 41 42 43 44 45 46 47 48 49 50

000
ASUS43 KDMX 301307
RWRIA

WEATHER ROUNDUP FOR IOWA
NATIONAL WEATHER SERVICE DES MOINES IA
800 AM CDT THU JUL 30 2015

NOTE: "FAIR" INDICATES FEW OR NO CLOUDS BELOW 12,000 FEET WITH NO
SIGNIFICANT WEATHER AND/OR OBSTRUCTIONS TO VISIBILITY.

* - THESE STATIONS ARE NOT NWS STATIONS...THUS NOT UNDER NWS
QUALITY CONTROL.  THEY ALSO DO NOT REPORT WEATHER SUCH
AS PRECIPITATION OR FOG.

IAZ001>003-012>014-020>022-031>034-043>046-301400-
   NORTHWEST IOWA

CITY           SKY/WX    TMP DP  RH WIND       PRES   REMARKS
CARROLL *      SUNNY     68  59  73 W10       30.15S
CHEROKEE *     SUNNY     63  63 100 CALM      30.15S
DENISON *      SUNNY     64  61  88 VRB3      30.16S HAZE
LE MARS *      PTSUNNY   66  61  82 CALM      30.16S
ORANGE CITY *  SUNNY     63  61  94 CALM      30.16R
SHELDON *      SUNNY     63  59  88 CALM      30.14R
SIOUX CITY     SUNNY     70  58  65 NW3       30.15S
SPENCER        SUNNY     63  58  83 W6        30.14R
STORM LAKE *   SUNNY     64  61  88 W9        30.16S
$$

IAZ055>058-069>071-079>083-090>094-301400-
   SOUTHWEST IOWA

CITY           SKY/WX    TMP DP  RH WIND       PRES   REMARKS
ATLANTIC *     SUNNY     64  63  94 S3        30.18S
AUDUBON *      SUNNY     66  61  82 SW5       30.19R
CLARINDA *     SUNNY     64  64 100 CALM      30.21R FOG
COUNCIL BLFS * SUNNY     66  63  88 CALM      30.20R
CRESTON *      SUNNY     66  61  82 W7        30.19R
HARLAN  *      SUNNY     64  64 100 CALM      30.22R
LAMONI           N/A     70  62  76 W7        30.18R
RED OAK *      SUNNY     64  63  94 CALM      30.20R
SHENANDOAH *   SUNNY     64  63  94 CALM      30.20R
$$

IAZ047>049-059>061-072>074-084-301400-
   CENTRAL IOWA

CITY           SKY/WX    TMP DP  RH WIND       PRES   REMARKS
AMES           SUNNY     66  60  81 W8        30.13S
ANKENY *       SUNNY     70  59  68 W12       30.14S
CHARITON *     SUNNY     70  59  68 W8        30.16S
DES MOINES     SUNNY     70  58  65 W7        30.14S
GRINNELL*      SUNNY     68  59  73 W6        30.15S
KNOXVILLE *    SUNNY     66  59  77 W6        30.14S
MARSHALLTOWN     N/A     66  61  84 W6        30.12S
PELLA *        SUNNY     72  64  78 W8        30.15S
PERRY *          N/A     68  63  83 W7        30.15S
$$

IAZ004>006-015-016-023>025-035-036-301400-
   NORTH CENTRAL IOWA

CITY           SKY/WX    TMP DP  RH WIND       PRES   REMARKS
ALGONA *       SUNNY     66  61  82 SW8       30.12S
CLARION *      SUNNY     63  61  94 SW5       30.13R
ESTHERVILLE    SUNNY     66  61  84 CALM      30.11F
FORT DODGE *   SUNNY     64  59  82 SW5       30.14S
MASON CITY     SUNNY     69  59  70 W9        30.12S
FOREST CITY *  SUNNY     64  61  88 CALM      30.11S
IOWA FALLS *     N/A     64  61  88 W6        30.13F
$$

IAZ007>011-017>019-026>030-037>042-050>054-066-301400-
   NORTHEAST IOWA

CITY           SKY/WX    TMP DP  RH WIND       PRES   REMARKS
CEDAR RAPIDS   SUNNY     66  63  90 W7        30.11S
CHARLES CITY *   N/A     64  63  94 W5        30.11S
CLINTON *      SUNNY     64  61  88 W7        30.12S
DECORAH *      SUNNY     64  59  82 W5        30.08S
DUBUQUE        SUNNY     69  59  70 NW8       30.10S
MONTICELLO *   SUNNY     66  61  82 VRB6      30.10S
OELWEIN *        N/A     66  63  88 W5        30.11S
WATERLOO         N/A     68  60  75 W5        30.10S
$$

IAZ064-065-067-068-078-301400-
   EAST CENTRAL IOWA

CITY           SKY/WX    TMP DP  RH WIND       PRES   REMARKS
DAVENPORT      SUNNY     67  62  84 W7        30.11S
IOWA CITY      SUNNY     69  61  75 NW8       30.12S
MT. PLEASANT * SUNNY     72  57  60 W6        30.14S
MUSCATINE *    SUNNY     70  61  73 W7        30.12R
QUAD CITIES    SUNNY     71  62  73 W7        30.10S
$$

IAZ062-063-075>077-085>089-095>099-301400-
   SOUTHEAST IOWA

CITY           SKY/WX    TMP DP  RH WIND       PRES   REMARKS
BURLINGTON     SUNNY     70  61  73 NW6       30.13S
FAIRFIELD *    SUNNY     68  61  77 W8        30.14S
FORT MADISON * SUNNY     70  61  73 W6        30.15S
KEOKUK *       SUNNY     72  61  68 NW6       30.14S
OSKALOOSA *      N/A     66  61  82 W3        30.15R
CENTERVILLE *  SUNNY     68  63  83 W5        30.18S
OTTUMWA        SUNNY     67  61  81 W7        30.13S
WASHINGTON *   SUNNY     68  63  83 W8        30.14S
$$

ABBREVIATIONS USED IN REMARKS
   TC - TEMPERATURES IN CELSIUS
  WCI - WIND CHILL INDEX
   HX - HEAT INDEX
  VSB - VISIBILITY
$$




USA.gov is the U.S. government's official web portal to all federal, state and local government web resources and services.